Location: *
(41.7492°S, 135.4150°W)
Time: 04:54:53
(UTC+00:00)

AO-27 - Pass Details

Date: 08 July 2022
Orbit: 786 x 796 km, 98.9° (Epoch: 14 August)

Event Time Altitude Azimuth Distance (km) Brightness Sun altitude
Rises 14:42:00 0° 59° (ENE) 3,302 12.2 -19.2°
Reaches altitude 10° 14:44:57 10° 76° (ENE) 2,380 11.4 -18.6°
Maximum altitude 14:48:31 19° 119° (ESE) 1,845 10.1 -18.0°
Drops below altitude 10° 14:52:06 10° 162° (SSE) 2,394 10.2 -17.4°
Sets 14:55:04 0° 179° (S) 3,330 10.8 -16.8°
